Time,TemperatureF,DewpointF,PressureIn,WindDirection,WindDirectionDegrees,WindSpeedMPH,WindSpeedGustMPH,Humidity,HourlyPrecipIn,Conditions,Clouds,dailyrainin,SoftwareType,DateUTC
2013-04-14 00:03:00,54.4,54.0,30.02,SE,136,0.0,0.0,97,0.00,,,0.00,weatherlink.com 1.10,2013-04-14 04:03:00,
2013-04-14 00:18:00,54.0,53.0,30.03,SE,136,0.0,0.0,97,0.00,,,0.00,weatherlink.com 1.10,2013-04-14 04:18:00,
2013-04-14 00:33:00,53.6,53.0,30.03,SE,136,0.0,0.0,97,0.00,,,0.00,weatherlink.com 1.10,2013-04-14 04:33:00,
2013-04-14 00:48:00,53.4,53.0,30.03,SE,136,0.0,0.0,97,0.00,,,0.00,weatherlink.com 1.10,2013-04-14 04:48:00,
2013-04-14 01:03:00,53.3,53.0,30.03,SE,136,0.0,0.0,97,0.00,,,0.00,weatherlink.com 1.10,2013-04-14 05:03:00,
2013-04-14 01:18:00,53.2,52.0,30.03,SE,137,0.0,0.0,97,0.00,,,0.00,weatherlink.com 1.10,2013-04-14 05:18:00,
2013-04-14 01:33:00,53.4,53.0,30.04,SE,136,0.0,0.0,97,0.00,,,0.00,weatherlink.com 1.10,2013-04-14 05:33:00,
2013-04-14 01:48:00,52.7,52.0,30.04,SE,136,0.0,0.0,97,0.00,,,0.00,weatherlink.com 1.10,2013-04-14 05:48:00,
2013-04-14 02:03:00,52.5,52.0,30.03,SE,136,0.0,0.0,97,0.00,,,0.00,weatherlink.com 1.10,2013-04-14 06:03:00,
2013-04-14 02:18:00,52.4,52.0,30.02,SE,136,0.0,0.0,98,0.00,,,0.00,weatherlink.com 1.10,2013-04-14 06:18:00,
2013-04-14 02:33:00,52.2,52.0,30.01,SE,136,0.0,1.0,98,0.00,,,0.00,weatherlink.com 1.10,2013-04-14 06:33:00,
2013-04-14 02:48:00,52.2,52.0,30.02,SE,136,0.0,0.0,98,0.00,,,0.00,weatherlink.com 1.10,2013-04-14 06:48:00,
2013-04-14 03:03:00,52.0,52.0,30.03,SE,136,0.0,0.0,98,0.00,,,0.00,weatherlink.com 1.10,2013-04-14 07:03:00,
2013-04-14 03:18:00,51.8,51.0,30.03,SE,136,0.0,0.0,98,0.00,,,0.00,weatherlink.com 1.10,2013-04-14 07:18:00,
2013-04-14 03:33:00,51.5,51.0,30.03,SE,136,0.0,0.0,98,0.00,,,0.00,weatherlink.com 1.10,2013-04-14 07:33:00,
2013-04-14 03:48:00,51.5,51.0,30.03,SE,136,0.0,0.0,98,0.00,,,0.00,weatherlink.com 1.10,2013-04-14 07:48:00,
2013-04-14 04:03:00,51.1,51.0,30.02,SE,136,0.0,0.0,98,0.00,,,0.00,weatherlink.com 1.10,2013-04-14 08:03:00,
2013-04-14 04:18:00,51.2,51.0,30.03,SE,136,0.0,0.0,98,0.00,,,0.00,weatherlink.com 1.10,2013-04-14 08:18:00,
2013-04-14 04:33:00,51.0,51.0,30.03,SE,136,0.0,0.0,98,0.00,,,0.00,weatherlink.com 1.10,2013-04-14 08:33:00,
2013-04-14 04:48:00,51.0,51.0,30.03,SE,136,0.0,0.0,98,0.00,,,0.00,weatherlink.com 1.10,2013-04-14 08:48:00,
2013-04-14 05:03:00,50.9,50.0,30.04,SE,136,0.0,0.0,98,0.00,,,0.00,weatherlink.com 1.10,2013-04-14 09:03:00,
2013-04-14 05:18:00,50.8,50.0,30.04,SE,136,0.0,0.0,98,0.00,,,0.00,weatherlink.com 1.10,2013-04-14 09:18:00,
2013-04-14 05:33:00,50.6,50.0,30.05,SE,136,0.0,0.0,98,0.00,,,0.00,weatherlink.com 1.10,2013-04-14 09:33:00,
2013-04-14 05:48:00,50.6,50.0,30.05,SE,136,0.0,0.0,98,0.00,,,0.00,weatherlink.com 1.10,2013-04-14 09:48:00,
2013-04-14 06:03:00,50.5,50.0,30.05,SE,136,0.0,0.0,98,0.00,,,0.00,weatherlink.com 1.10,2013-04-14 10:03:00,
2013-04-14 06:18:00,50.4,50.0,30.05,SE,128,0.0,0.0,98,0.00,,,0.00,weatherlink.com 1.10,2013-04-14 10:18:00,
2013-04-14 06:33:00,50.6,50.0,30.06,SE,128,0.0,0.0,98,0.00,,,0.00,weatherlink.com 1.10,2013-04-14 10:33:00,
2013-04-14 06:49:00,50.4,50.0,30.07,SE,130,0.0,0.0,98,0.00,,,0.00,weatherlink.com 1.10,2013-04-14 10:49:00,
2013-04-14 07:04:00,50.5,50.0,30.08,SE,130,0.0,0.0,98,0.00,,,0.00,weatherlink.com 1.10,2013-04-14 11:04:00,
2013-04-14 07:19:00,50.8,50.0,30.09,SE,129,0.0,0.0,98,0.00,,,0.00,weatherlink.com 1.10,2013-04-14 11:19:00,
2013-04-14 07:34:00,51.4,51.0,30.09,SE,127,0.0,0.0,98,0.00,,,0.00,weatherlink.com 1.10,2013-04-14 11:34:00,
2013-04-14 07:49:00,52.2,52.0,30.09,SE,127,0.0,0.0,98,0.00,,,0.00,weatherlink.com 1.10,2013-04-14 11:49:00,
2013-04-14 08:04:00,53.2,53.0,30.09,SE,128,0.0,0.0,98,0.00,,,0.00,weatherlink.com 1.10,2013-04-14 12:04:00,
2013-04-14 08:19:00,54.4,54.0,30.10,SE,124,0.0,0.0,98,0.00,,,0.00,weatherlink.com 1.10,2013-04-14 12:19:00,
2013-04-14 08:34:00,56.4,56.0,30.09,ESE,123,0.0,0.0,99,0.00,,,0.00,weatherlink.com 1.10,2013-04-14 12:34:00,
2013-04-14 08:49:00,58.0,58.0,30.09,SE,124,0.0,0.0,99,0.00,,,0.00,weatherlink.com 1.10,2013-04-14 12:49:00,
2013-04-14 09:04:00,59.2,59.0,30.09,ENE,68,1.0,1.0,98,0.00,,,0.00,weatherlink.com 1.10,2013-04-14 13:04:00,
2013-04-14 09:19:00,60.3,60.0,30.10,East,87,0.0,0.0,98,0.00,,,0.00,weatherlink.com 1.10,2013-04-14 13:19:00,
2013-04-14 09:34:00,62.0,61.0,30.10,ESE,109,0.0,1.0,97,0.00,,,0.00,weatherlink.com 1.10,2013-04-14 13:34:00,
2013-04-14 09:49:00,63.7,61.0,30.09,East,101,0.0,0.0,92,0.00,,,0.00,weatherlink.com 1.10,2013-04-14 13:49:00,
2013-04-14 10:04:00,64.3,61.0,30.10,East,96,1.0,2.0,90,0.00,,,0.00,weatherlink.com 1.10,2013-04-14 14:04:00,
2013-04-14 10:19:00,66.1,63.0,30.11,SW,229,0.0,3.0,89,0.00,,,0.00,weatherlink.com 1.10,2013-04-14 14:19:00,
2013-04-14 10:34:00,66.9,60.0,30.11,East,85,1.0,5.0,79,0.00,,,0.00,weatherlink.com 1.10,2013-04-14 14:34:00,
2013-04-14 10:49:00,68.4,61.0,30.10,ESE,120,1.0,4.0,76,0.00,,,0.00,weatherlink.com 1.10,2013-04-14 14:49:00,
2013-04-14 11:04:00,69.2,60.0,30.10,SE,139,1.0,4.0,73,0.00,,,0.00,weatherlink.com 1.10,2013-04-14 15:04:00,
2013-04-14 11:19:00,69.7,60.0,30.10,East,93,2.0,4.0,70,0.00,,,0.00,weatherlink.com 1.10,2013-04-14 15:19:00,
2013-04-14 11:34:00,70.1,59.0,30.10,ENE,76,1.0,5.0,67,0.00,,,0.00,weatherlink.com 1.10,2013-04-14 15:34:00,
2013-04-14 11:49:00,70.8,59.0,30.09,East,90,2.0,6.0,67,0.00,,,0.00,weatherlink.com 1.10,2013-04-14 15:49:00,
2013-04-14 12:05:00,71.0,58.0,30.09,SSW,199,2.0,5.0,63,0.00,,,0.00,weatherlink.com 1.10,2013-04-14 16:05:00,
2013-04-14 12:20:00,71.4,57.0,30.10,SE,143,2.0,7.0,61,0.00,,,0.00,weatherlink.com 1.10,2013-04-14 16:20:00,
2013-04-14 12:35:00,71.8,57.0,30.10,SE,139,5.0,6.0,59,0.00,,,0.00,weatherlink.com 1.10,2013-04-14 16:35:00,
2013-04-14 12:50:00,71.9,56.0,30.10,ESE,116,0.0,8.0,57,0.00,,,0.00,weatherlink.com 1.10,2013-04-14 16:50:00,
2013-04-14 13:05:00,72.3,57.0,30.10,SSE,150,1.0,10.0,59,0.00,,,0.00,weatherlink.com 1.10,2013-04-14 17:05:00,
2013-04-14 13:20:00,72.9,58.0,30.09,SE,125,3.0,6.0,59,0.00,,,0.00,weatherlink.com 1.10,2013-04-14 17:20:00,
2013-04-14 13:35:00,73.0,60.0,30.09,SSW,201,3.0,5.0,64,0.00,,,0.00,weatherlink.com 1.10,2013-04-14 17:35:00,
2013-04-14 13:50:00,72.7,61.0,30.09,SSE,153,6.0,9.0,67,0.00,,,0.00,weatherlink.com 1.10,2013-04-14 17:50:00,
2013-04-14 14:05:00,72.3,62.0,30.09,SSE,161,2.0,8.0,71,0.00,,,0.00,weatherlink.com 1.10,2013-04-14 18:05:00,
2013-04-14 14:20:00,71.8,62.0,30.08,SE,130,0.0,7.0,70,0.00,,,0.00,weatherlink.com 1.10,2013-04-14 18:20:00,
2013-04-14 14:35:00,71.8,62.0,30.08,SE,132,4.0,8.0,70,0.00,,,0.00,weatherlink.com 1.10,2013-04-14 18:35:00,
2013-04-14 14:50:00,71.9,62.0,30.07,ENE,78,2.0,7.0,70,0.00,,,0.00,weatherlink.com 1.10,2013-04-14 18:50:00,
2013-04-14 15:05:00,72.8,62.0,30.06,East,97,4.0,6.0,69,0.00,,,0.00,weatherlink.com 1.10,2013-04-14 19:05:00,
2013-04-14 15:20:00,72.2,62.0,30.05,East,82,3.0,9.0,71,0.00,,,0.00,weatherlink.com 1.10,2013-04-14 19:20:00,
2013-04-14 15:35:00,71.3,62.0,30.05,East,97,2.0,8.0,72,0.00,,,0.00,weatherlink.com 1.10,2013-04-14 19:35:00,
2013-04-14 15:50:00,71.1,62.0,30.04,SE,130,1.0,4.0,73,0.00,,,0.00,weatherlink.com 1.10,2013-04-14 19:50:00,
2013-04-14 16:05:00,70.6,62.0,30.05,SSE,152,0.0,6.0,73,0.00,,,0.00,weatherlink.com 1.10,2013-04-14 20:05:00,
2013-04-14 16:20:00,70.2,61.0,30.07,ESE,106,2.0,3.0,73,0.00,,,0.00,weatherlink.com 1.10,2013-04-14 20:20:00,
2013-04-14 16:35:00,69.8,61.0,30.07,WSW,246,0.0,6.0,73,0.00,,,0.00,weatherlink.com 1.10,2013-04-14 20:35:00,
2013-04-14 16:50:00,69.4,61.0,30.06,ESE,114,0.0,3.0,74,0.00,,,0.00,weatherlink.com 1.10,2013-04-14 20:50:00,
2013-04-14 17:05:00,68.9,61.0,30.07,SE,130,0.0,4.0,75,0.00,,,0.00,weatherlink.com 1.10,2013-04-14 21:05:00,
2013-04-14 17:20:00,68.6,61.0,30.07,South,182,0.0,2.0,77,0.00,,,0.00,weatherlink.com 1.10,2013-04-14 21:20:00,
2013-04-14 17:35:00,68.5,61.0,30.08,North,5,0.0,2.0,77,0.00,,,0.00,weatherlink.com 1.10,2013-04-14 21:35:00,
2013-04-14 17:50:00,68.1,61.0,30.08,ESE,112,1.0,3.0,78,0.00,,,0.00,weatherlink.com 1.10,2013-04-14 21:50:00,
2013-04-14 18:05:00,67.6,61.0,30.07,ESE,120,2.0,4.0,79,0.00,,,0.00,weatherlink.com 1.10,2013-04-14 22:05:00,
2013-04-14 18:20:00,67.3,61.0,30.08,SSE,147,0.0,1.0,80,0.00,,,0.00,weatherlink.com 1.10,2013-04-14 22:20:00,
2013-04-14 18:35:00,67.0,61.0,30.07,ESE,108,0.0,1.0,81,0.00,,,0.00,weatherlink.com 1.10,2013-04-14 22:35:00,
2013-04-14 18:50:00,66.9,61.0,30.06,East,89,0.0,4.0,82,0.00,,,0.00,weatherlink.com 1.10,2013-04-14 22:50:00,
2013-04-14 19:05:00,66.4,61.0,30.06,East,89,0.0,3.0,83,0.00,,,0.00,weatherlink.com 1.10,2013-04-14 23:05:00,
2013-04-14 19:20:00,66.0,61.0,30.05,SE,127,1.0,5.0,84,0.00,,,0.00,weatherlink.com 1.10,2013-04-14 23:20:00,
2013-04-14 19:35:00,65.8,61.0,30.05,NE,54,1.0,4.0,85,0.00,,,0.00,weatherlink.com 1.10,2013-04-14 23:35:00,
2013-04-14 19:50:00,65.6,61.0,30.05,East,99,0.0,3.0,86,0.00,,,0.00,weatherlink.com 1.10,2013-04-14 23:50:00,
2013-04-14 20:05:00,65.5,62.0,30.04,East,92,0.0,0.0,87,0.00,,,0.00,weatherlink.com 1.10,2013-04-15 00:05:00,
2013-04-14 20:20:00,65.5,62.0,30.02,ENE,68,1.0,4.0,88,0.00,,,0.00,weatherlink.com 1.10,2013-04-15 00:20:00,
2013-04-14 20:35:00,65.5,62.0,30.02,East,81,1.0,4.0,88,0.00,,,0.00,weatherlink.com 1.10,2013-04-15 00:35:00,
2013-04-14 20:50:00,65.4,62.0,30.02,East,94,3.0,5.0,87,0.00,,,0.00,weatherlink.com 1.10,2013-04-15 00:50:00,
2013-04-14 21:05:00,65.5,62.0,30.00,East,101,1.0,6.0,87,0.00,,,0.00,weatherlink.com 1.10,2013-04-15 01:05:00,
2013-04-14 21:20:00,65.5,61.0,29.99,ESE,115,3.0,9.0,85,0.00,,,0.00,weatherlink.com 1.10,2013-04-15 01:20:00,
2013-04-14 21:35:00,65.4,61.0,30.02,SE,142,0.0,6.0,85,0.00,,,0.00,weatherlink.com 1.10,2013-04-15 01:35:00,
2013-04-14 21:50:00,65.9,61.0,30.05,SSE,158,1.0,5.0,84,0.00,,,0.00,weatherlink.com 1.10,2013-04-15 01:50:00,
2013-04-14 22:06:00,65.9,61.0,30.06,East,95,2.0,4.0,84,0.00,,,0.00,weatherlink.com 1.10,2013-04-15 02:06:00,
2013-04-14 22:20:00,65.5,61.0,30.07,East,86,2.0,4.0,86,0.00,,,0.00,weatherlink.com 1.10,2013-04-15 02:20:00,
2013-04-14 22:35:00,65.0,61.0,30.05,South,182,0.0,3.0,88,0.00,,,0.00,weatherlink.com 1.10,2013-04-15 02:35:00,
2013-04-14 22:50:00,64.9,61.0,30.05,SE,127,1.0,3.0,88,0.00,,,0.00,weatherlink.com 1.10,2013-04-15 02:50:00,
2013-04-14 23:05:00,65.0,61.0,30.03,ESE,102,0.0,5.0,88,0.00,,,0.00,weatherlink.com 1.10,2013-04-15 03:05:00,
2013-04-14 23:20:00,65.1,62.0,30.03,SE,125,1.0,4.0,88,0.00,,,0.00,weatherlink.com 1.10,2013-04-15 03:20:00,
2013-04-14 23:35:00,64.8,62.0,30.02,ESE,103,1.0,4.0,90,0.01,,,0.01,weatherlink.com 1.10,2013-04-15 03:35:00,
2013-04-14 23:50:00,64.5,62.0,30.04,SSE,155,0.0,4.0,91,0.02,,,0.02,weatherlink.com 1.10,2013-04-15 03:50:00,